Home   Weather   USA   Ashland   Past weeks
Flag for USA

Past Weather in Ashland, Nebraska, USA — Yesterday and Last 2 Weeks

Currently: 43 °F. Clear. (Weather station: Millard Airport, USA). See more current weather

Past Weather in Ashland — Graph

°F

Ashland Temperature Yesterday

Maximum temperature yesterday: 52 °F (at 4:35 pm)
Minimum temperature yesterday: 34 °F (at 7:15 am)
Average temperature yesterday: 43 °F

High & Low Weather Summary for the Past Weeks

 TemperatureHumidityPressure
High88 °F (Apr 4, 4:55 pm)89% (Apr 7, 7:55 pm)30.60 "Hg (Apr 7, 7:55 pm)
Low26 °F (Apr 1, 5:55 am)16% (Apr 3, 3:56 pm)29.49 "Hg (Apr 8, 2:55 am)
Average54 °F55%29.92 "Hg
* Reported Apr 1 2:35 am — Apr 16 2:55 am, Ashland. Weather by CustomWeather, © 2021

Note: Actual official high and low records may vary slightly from our data, if they occured in-between our weather recording intervals... More about our weather records

Ashland Weather History for the Previous 24 Hours

Scroll right to see more
 ConditionsComfort  
Time TempWeatherWind HumidityBarometerVisibility
2:55 am
Fri, Apr 16
43 °FClear.5 mph67%30.10 "Hg10 mi
2:35 am43 °FPassing clouds.3 mph67%30.10 "Hg10 mi
2:15 am43 °FMostly cloudy.No wind70%30.12 "Hg10 mi
1:55 am43 °FPassing clouds.3 mph68%30.12 "Hg10 mi
1:35 am42 °FPartly cloudy.3 mph71%30.13 "Hg10 mi
1:15 am43 °FMostly cloudy.3 mph67%30.13 "Hg10 mi
12:55 am43 °FPartly cloudy.No wind67%30.13 "Hg10 mi
12:35 am43 °FClear.5 mph68%30.13 "Hg10 mi
12:15 am44 °FClear.No wind64%30.12 "Hg10 mi
11:55 pm
Thu, Apr 15
44 °FClear.No wind64%30.11 "Hg10 mi
11:35 pm44 °FClear.3 mph63%30.11 "Hg10 mi
10:55 pm45 °FPassing clouds.3 mph61%30.13 "Hg10 mi
10:35 pm46 °FPassing clouds.3 mph59%30.13 "Hg10 mi
9:55 pm46 °FClear.3 mph58%30.14 "Hg10 mi
9:35 pm46 °FClear.3 mph57%30.13 "Hg10 mi
9:15 pm47 °FClear.3 mph57%30.13 "Hg10 mi
8:55 pm47 °FClear.3 mph56%30.12 "Hg10 mi
8:35 pm47 °FClear.3 mph55%30.12 "Hg10 mi
8:15 pm47 °FClear.8 mph55%30.11 "Hg10 mi
7:55 pm48 °FSunny.5 mph55%30.11 "Hg10 mi
7:15 pm48 °FScattered clouds.7 mph54%30.11 "Hg10 mi
6:55 pm49 °FSunny.6 mph53%30.10 "Hg10 mi
6:35 pm49 °FSunny.8 mph52%30.10 "Hg10 mi
6:15 pm49 °FSunny.7 mph52%30.10 "Hg10 mi
5:55 pm50 °FSunny.7 mph51%30.10 "Hg10 mi
5:35 pm51 °FSunny.5 mph50%30.10 "Hg10 mi
5:15 pm51 °FScattered clouds.8 mph50%30.10 "Hg10 mi
4:55 pm51 °FScattered clouds.8 mph49%30.10 "Hg10 mi
4:35 pm52 °FScattered clouds.6 mph49%30.10 "Hg10 mi
4:15 pm51 °FPartly sunny.3 mph49%30.11 "Hg10 mi
3:55 pm51 °FPartly sunny.5 mph51%30.12 "Hg10 mi
3:35 pm50 °FPartly sunny.5 mph50%30.13 "Hg10 mi
2:55 pm50 °FPartly sunny.6 mph51%30.15 "Hg10 mi
2:35 pm50 °FPartly sunny.8 mph52%30.15 "Hg10 mi
2:15 pm50 °FPartly sunny.8 mph52%30.16 "Hg10 mi
1:55 pm49 °FPartly sunny.9 mph52%30.17 "Hg10 mi
1:35 pm49 °FPartly sunny.7 mph52%30.18 "Hg10 mi
1:15 pm49 °FPartly sunny.6 mph54%30.18 "Hg10 mi
12:55 pm48 °FOvercast.8 mph55%30.20 "Hg10 mi
12:15 pm46 °FOvercast.6 mph57%30.22 "Hg10 mi
11:55 am46 °FOvercast.7 mph59%30.23 "Hg10 mi
11:35 am45 °FOvercast.7 mph60%30.24 "Hg10 mi
11:15 am44 °FOvercast.7 mph63%30.24 "Hg10 mi
10:55 am43 °FOvercast.7 mph64%30.24 "Hg10 mi
10:35 am43 °FOvercast.7 mph65%30.25 "Hg10 mi
9:55 am42 °FOvercast.5 mph66%30.25 "Hg10 mi
9:35 am42 °FOvercast.7 mph67%30.24 "Hg10 mi
9:15 am41 °FOvercast.6 mph69%30.25 "Hg10 mi
8:55 am40 °FOvercast.6 mph70%30.26 "Hg10 mi
8:35 am39 °FOvercast.6 mph73%30.26 "Hg10 mi
8:15 am37 °FOvercast.5 mph77%30.25 "Hg10 mi
7:55 am36 °FPartly sunny.6 mph79%30.25 "Hg10 mi
7:35 am34 °FSunny.5 mph81%30.25 "Hg10 mi
7:15 am34 °FSunny.No wind81%30.25 "Hg10 mi
6:55 am34 °FSunny.No wind78%30.25 "Hg10 mi
6:35 am35 °FClear.No wind78%30.24 "Hg10 mi
6:15 am35 °FClear.3 mph77%30.24 "Hg10 mi
5:55 am35 °FClear.3 mph77%30.24 "Hg10 mi
5:35 am35 °FClear.5 mph78%30.25 "Hg10 mi
5:15 am36 °FClear.No wind76%30.25 "Hg10 mi
4:35 am35 °FClear.5 mph79%30.25 "Hg10 mi
4:15 am35 °FClear.8 mph78%30.25 "Hg10 mi
Weather by CustomWeather, © 2021

See weather overview